Location: Unspecified
(0.0000°N, 0.0000°E)
Time: 05:44:10
(UTC+01:00)

ARIANE 6 FM1 Upper Stage - Visible Passes

Search period start: 17 January 2026 00:00
Search period end: 27 January 2026 00:00
Orbit: 522 x 610 km, 62.0° (Epoch: 16 January)

Date Brightness Start Highest point End Pass type
(mag) Time Alt. Az. Time Alt. Az. Time Alt. Az.
17 Jan 4.6 19:59:53 10° SW 20:03:33 28° WNW 20:07:07 10° N visible
18 Jan 5.4 06:22:03 10° NNE 06:24:28 15° ENE 06:26:55 10° ESE visible
18 Jan 5.4 20:01:01 10° WSW 20:03:42 16° WNW 20:06:20 10° NNW visible
19 Jan 4.7 06:21:12 10° N 06:24:37 26° ENE 06:28:08 10° ESE visible
20 Jan 3.6 06:20:51 10° N 06:24:46 46° ENE 06:28:47 10° SE visible
21 Jan 2.6 06:20:50 10° NNW 06:24:54 87° ENE 06:29:07 10° SSE visible
22 Jan 2.9 06:21:39 13° NW 06:25:02 51° WSW 06:29:08 10° S visible
23 Jan 5.6 04:46:44 11° ENE 04:46:44 11° ENE 04:47:38 10° E visible
23 Jan 3.7 06:22:49 17° WNW 06:25:12 28° WSW 06:28:51 10° S visible
24 Jan 5.3 04:47:52 17° E 04:47:52 17° E 04:49:36 10° ESE visible
24 Jan 4.4 06:23:57 14° W 06:25:23 17° WSW 06:28:06 10° SSW visible
25 Jan 5.2 04:48:57 20° ESE 04:48:57 20° ESE 04:50:30 10° SE visible
26 Jan 5.3 04:49:58 17° SE 04:49:58 17° SE 04:50:59 10° SE visible
